• Em Portugal
  • Lista de países
  • Para 7 dias
  • Temperatura da água
  • Mapas de satélite
  • Mapa do tempo
  • Widgets de tempo
  • user-avatar
    Iniciar Sessão

    Previsão horária em Katmandu

    Hoje, 22 Junho, Sexta-feira

    Tempo Temperatura Precipitação Vento Pressão Humidade
    00:00 +24°C° 0 mm 1 m/s 649 mmHg 76%
    01:00 +23°C° 0 mm 1 m/s 648 mmHg 74%
    02:00 +23°C° 0 mm 1 m/s 648 mmHg 73%
    03:00 +23°C° 0 mm 1 m/s 648 mmHg 72%
    04:00 +23°C° 0 mm 1 m/s 648 mmHg 70%
    05:00 +23°C° 0 mm 1 m/s 648 mmHg 68%
    06:00 +23°C° 0 mm 1 m/s 648 mmHg 66%
    07:00 +25°C° 0 mm 2 m/s 649 mmHg 59%
    08:00 +27°C° 0 mm 2 m/s 650 mmHg 52%
    09:00 +29°C° 0 mm 2 m/s 650 mmHg 46%
    10:00 +30°C° 0,1 mm 2 m/s 650 mmHg 45%
    11:00 +31°C° 0,1 mm 2 m/s 650 mmHg 44%
    12:00 +32°C° 0 mm 2 m/s 650 mmHg 45%
    13:00 +32°C° 0,6 mm 2 m/s 650 mmHg 46%
    14:00 +32°C° 0,6 mm 2 m/s 649 mmHg 48%
    15:00 +32°C° 0,6 mm 2 m/s 649 mmHg 50%
    16:00 +31°C° 0,7 mm 2 m/s 648 mmHg 53%
    17:00 +30°C° 0,7 mm 2 m/s 648 mmHg 57%
    18:00 +29°C° 0 mm 2 m/s 648 mmHg 63%
    19:00 +27°C° 0,3 mm 1 m/s 648 mmHg 68%
    20:00 +26°C° 0,3 mm 1 m/s 648 mmHg 73%
    21:00 +25°C° 0,3 mm 1 m/s 648 mmHg 79%
    22:00 +24°C° 0,9 mm 1 m/s 648 mmHg 79%
    23:00 +24°C° 0,9 mm 1 m/s 648 mmHg 80%

    Amanhã, 23 Junho, Sábado

    Tempo Temperatura Precipitação Vento Pressão Humidade
    00:00 +24°C° 0,9 mm 1 m/s 648 mmHg 81%
    01:00 +23°C° 0,9 mm 1 m/s 648 mmHg 81%
    02:00 +23°C° 0,9 mm 1 m/s 648 mmHg 81%
    03:00 +23°C° 0,9 mm 1 m/s 648 mmHg 81%
    04:00 +23°C° 0,5 mm 1 m/s 648 mmHg 79%
    05:00 +23°C° 0,5 mm 1 m/s 648 mmHg 78%
    06:00 +23°C° 0,5 mm 1 m/s 648 mmHg 76%
    07:00 +25°C° 0,2 mm 1 m/s 648 mmHg 71%
    08:00 +26°C° 0,2 mm 1 m/s 649 mmHg 65%
    09:00 +28°C° 0,2 mm 1 m/s 649 mmHg 60%
    10:00 +29°C° 0,1 mm 2 m/s 649 mmHg 56%
    11:00 +30°C° 0,1 mm 2 m/s 649 mmHg 51%
    12:00 +32°C° 0,1 mm 2 m/s 649 mmHg 46%
    13:00 +32°C° 0,3 mm 2 m/s 649 mmHg 49%
    14:00 +31°C° 0,3 mm 2 m/s 648 mmHg 52%
    15:00 +31°C° 0,3 mm 2 m/s 647 mmHg 54%
    16:00 +30°C° 1 mm 2 m/s 647 mmHg 58%
    17:00 +30°C° 1 mm 2 m/s 647 mmHg 62%
    18:00 +29°C° 1 mm 2 m/s 647 mmHg 65%
    19:00 +28°C° 1,3 mm 1 m/s 647 mmHg 71%
    20:00 +26°C° 1,3 mm 1 m/s 647 mmHg 76%
    21:00 +25°C° 1,3 mm 1 m/s 647 mmHg 82%
    22:00 +25°C° 1,1 mm 1 m/s 647 mmHg 82%
    23:00 +24°C° 1,1 mm 1 m/s 647 mmHg 82%

    Depois de amanhã, 24 Junho, Domingo

    Tempo Temperatura Precipitação Vento Pressão Humidade
    00:00 +24°C° 1,1 mm 1 m/s 647 mmHg 82%
    01:00 +24°C° 1 mm 1 m/s 647 mmHg 81%
    02:00 +24°C° 1 mm 1 m/s 646 mmHg 80%
    03:00 +23°C° 1 mm 1 m/s 646 mmHg 80%
    04:00 +23°C° 0,5 mm 1 m/s 646 mmHg 78%
    05:00 +23°C° 0,5 mm 1 m/s 646 mmHg 77%
    06:00 +24°C° 0,5 mm 1 m/s 646 mmHg 76%
    07:00 +25°C° 0,5 mm 1 m/s 647 mmHg 72%
    08:00 +26°C° 0,5 mm 1 m/s 647 mmHg 68%
    09:00 +28°C° 0,5 mm 1 m/s 648 mmHg 64%
    10:00 +28°C° 0,6 mm 2 m/s 648 mmHg 63%
    11:00 +29°C° 0,6 mm 2 m/s 648 mmHg 62%
    12:00 +30°C° 0,6 mm 2 m/s 648 mmHg 61%
    13:00 +30°C° 1,4 mm 2 m/s 647 mmHg 61%
    14:00 +30°C° 1,4 mm 2 m/s 647 mmHg 61%
    15:00 +30°C° 1,4 mm 2 m/s 646 mmHg 62%
    16:00 +29°C° 1,6 mm 2 m/s 646 mmHg 66%
    17:00 +28°C° 1,6 mm 2 m/s 646 mmHg 71%
    18:00 +28°C° 1,6 mm 2 m/s 646 mmHg 75%
    19:00 +27°C° 1,4 mm 1 m/s 646 mmHg 78%
    20:00 +26°C° 1,4 mm 1 m/s 646 mmHg 81%
    21:00 +25°C° 1,4 mm 1 m/s 646 mmHg 84%
    22:00 +25°C° 0,5 mm 1 m/s 646 mmHg 84%
    23:00 +24°C° 0,5 mm 1 m/s 647 mmHg 84%

    25 Junho, Segunda-feira

    Tempo Temperatura Precipitação Vento Pressão Humidade
    00:00 +24°C° 0,5 mm 1 m/s 647 mmHg 84%
    01:00 +24°C° 1 mm 1 m/s 646 mmHg 84%
    02:00 +23°C° 1 mm 1 m/s 646 mmHg 85%
    03:00 +23°C° 1 mm 1 m/s 646 mmHg 86%
    04:00 +23°C° 0,6 mm 1 m/s 646 mmHg 85%
    05:00 +23°C° 0,6 mm 1 m/s 646 mmHg 84%
    06:00 +23°C° 0,6 mm 1 m/s 646 mmHg 83%
    07:00 +24°C° 0,7 mm 1 m/s 647 mmHg 80%
    08:00 +25°C° 0,7 mm 1 m/s 647 mmHg 77%
    09:00 +26°C° 0,7 mm 1 m/s 648 mmHg 75%
    10:00 +27°C° 0,7 mm 2 m/s 647 mmHg 73%
    11:00 +27°C° 0,7 mm 2 m/s 647 mmHg 71%
    12:00 +28°C° 0,7 mm 2 m/s 647 mmHg 70%
    13:00 +28°C° 1,1 mm 2 m/s 647 mmHg 70%
    14:00 +28°C° 1,1 mm 2 m/s 646 mmHg 70%
    15:00 +28°C° 1,1 mm 2 m/s 646 mmHg 70%
    16:00 +28°C° 1,2 mm 2 m/s 645 mmHg 73%
    17:00 +27°C° 1,2 mm 2 m/s 645 mmHg 75%
    18:00 +27°C° 1,2 mm 1 m/s 645 mmHg 77%
    19:00 +26°C° 1,2 mm 1 m/s 645 mmHg 81%
    20:00 +25°C° 1,2 mm 1 m/s 646 mmHg 85%
    21:00 +22°C° 1,2 mm 0 m/s 646 mmHg 88%
    22:00 +24°C° 0,7 mm 1 m/s 646 mmHg 87%
    23:00 +24°C° 0,7 mm 1 m/s 646 mmHg 86%

    26 Junho, Terça-feira

    Tempo Temperatura Precipitação Vento Pressão Humidade
    00:00 +24°C° 0,7 mm 1 m/s 646 mmHg 84%
    01:00 +23°C° 1 mm 1 m/s 646 mmHg 85%
    02:00 +23°C° 1 mm 1 m/s 646 mmHg 86%
    03:00 +23°C° 1 mm 1 m/s 646 mmHg 86%
    04:00 +23°C° 1,6 mm 1 m/s 646 mmHg 86%
    05:00 +23°C° 1,6 mm 1 m/s 646 mmHg 87%
    06:00 +23°C° 1,6 mm 1 m/s 646 mmHg 87%
    07:00 +24°C° 0,9 mm 1 m/s 646 mmHg 83%
    08:00 +25°C° 0,9 mm 1 m/s 647 mmHg 79%
    09:00 +26°C° 0,9 mm 1 m/s 648 mmHg 75%
    10:00 +27°C° 1 mm 1 m/s 648 mmHg 73%
    11:00 +27°C° 1 mm 2 m/s 648 mmHg 70%
    12:00 +28°C° 1 mm 2 m/s 648 mmHg 68%
    13:00 +28°C° 1 mm 2 m/s 647 mmHg 67%
    14:00 +29°C° 1 mm 2 m/s 647 mmHg 66%
    15:00 +29°C° 1 mm 2 m/s 647 mmHg 65%
    16:00 +29°C° 1 mm 2 m/s 647 mmHg 67%
    17:00 +28°C° 1 mm 1 m/s 646 mmHg 70%
    18:00 +28°C° 1 mm 1 m/s 646 mmHg 72%
    19:00 +27°C° 1 mm 1 m/s 646 mmHg 75%
    20:00 +26°C° 1 mm 1 m/s 647 mmHg 79%
    21:00 +25°C° 1 mm 1 m/s 647 mmHg 83%
    22:00 +24°C° 0,5 mm 1 m/s 647 mmHg 83%
    23:00 +24°C° 0,5 mm 1 m/s 647 mmHg 83%

    27 Junho, Quarta-feira

    Tempo Temperatura Precipitação Vento Pressão Humidade
    00:00 +24°C° 0,5 mm 1 m/s 647 mmHg 83%
    01:00 +24°C° 1,1 mm 1 m/s 647 mmHg 84%
    02:00 +24°C° 1,1 mm 1 m/s 647 mmHg 85%
    03:00 +23°C° 1,1 mm 1 m/s 646 mmHg 86%
    04:00 +23°C° 1,4 mm 1 m/s 647 mmHg 86%
    05:00 +23°C° 1,4 mm 1 m/s 647 mmHg 86%
    06:00 +23°C° 1,4 mm 1 m/s 647 mmHg 86%
    07:00 +24°C° 1,1 mm 1 m/s 648 mmHg 82%
    08:00 +26°C° 1,1 mm 1 m/s 648 mmHg 78%
    09:00 +27°C° 1,1 mm 1 m/s 649 mmHg 74%
    10:00 +27°C° 1,2 mm 1 m/s 649 mmHg 72%
    11:00 +28°C° 1,2 mm 2 m/s 649 mmHg 69%
    12:00 +29°C° 1,2 mm 2 m/s 649 mmHg 67%
    13:00 +29°C° 0,7 mm 2 m/s 648 mmHg 66%
    14:00 +29°C° 0,7 mm 2 m/s 648 mmHg 65%
    15:00 +30°C° 0,7 mm 2 m/s 648 mmHg 63%
    16:00 +29°C° 1,3 mm 2 m/s 648 mmHg 67%
    17:00 +28°C° 1,3 mm 2 m/s 648 mmHg 71%
    18:00 +28°C° 1,3 mm 1 m/s 648 mmHg 75%
    19:00 +27°C° 1,5 mm 1 m/s 648 mmHg 79%
    20:00 +25°C° 1,5 mm 1 m/s 648 mmHg 83%
    21:00 +24°C° 1,5 mm 1 m/s 648 mmHg 86%
    22:00 +24°C° 0,5 mm 1 m/s 648 mmHg 86%
    23:00 +24°C° 0,5 mm 1 m/s 648 mmHg 85%
    Mostrar mais